HYLAS 1

Last updated on Thu Nov 21 2024 00:02:41 GMT+0000 (Coordinated Universal Time)

1 37237U 10065A 24325.55658686 -.00000209 00000+0 00000+0 0 9999 2 37237 4.1780 80.0003 0005772 179.8759 107.7630 0.99509237 1135
UTC large
Height (km)
Speed (km/s)
/
Latitude / Longitude
Inclination (degrees)
Orbital Period (minutes)
Azimuth
Elevation
Range (km)
Doppler Factor

Next 0 passes for location: London (51.5072 / 0.1276)

Sorry there are no passes over London.